Location: ?????
(32.7281°N, 34.9563°E)
Time: 01:18:38
(UTC+00:00)

Cosmos 1315 Rocket - Pass Details

Date: 29 October 2020
Orbit: 530 x 567 km, 81.2° (Epoch: 25 November)

Event Time Altitude Azimuth Distance (km) Brightness Sun altitude
Rises 16:00:45 0° 186° (S) 2,664 6.5 -15.0°
Reaches altitude 10° 16:02:53 10° 186° (S) 1,782 5.6 -15.5°
Maximum altitude 16:06:48 89° 101° (E) 544 2.7 -16.3°
Drops below altitude 10° 16:10:48 10° 8° (N) 1,814 5.3 -17.1°
Sets 16:12:59 0° 9° (N) 2,717 6.2 -17.6°
